星链-6245 (STARLINK-6245 )

导读

**STARLINK-6245卫星摘要** STARLINK-6245是美国SpaceX公司星链星座的一颗低轨互联网卫星,于2023年6月22日发射,属于第二代星链(V1.5)批次。卫星质量约295公斤,运行在340-614公里近地轨道,配备相控阵天线与氪离子推进系统,支持激光星间链路,旨在为全球提供高速低延迟宽带互联网服务。作为星链大规模组网的一部分,它进一步扩展了星座覆盖范围,助力实现全球无缝网络连接目标。

Basic Information
目录编号:
57079
目录名称:
STARLINK-6245
国际标识:
2023-088AH
轨道中心:
EARTH
卫星名称:
星链-6245
卫星全名:
星链-6245 (STARLINK-6245 )
卫星状态:
在轨 (已飞行1170 天)
发射日期:
2023-06-22 UTC
国别 :
美国 (US)
星等 :
--
Orbit Information
数据来源 国际轨道数据 AOE轨道数据
星历时间 2026-09-04T03:19:21+0800
19小时前
查看轨道信息
2026-09-03T23:00:00+0800
23小时前
查看轨道信息
半长轴 6861.196km 6861.19km
偏心率 0.0001179 0.0001265
轨道倾角 43.001° 43.000°
近地点辐角 253.215° 246.647°
升交点赤经 169.983° 171.001°
平近点角 106.858° 201.867°
近地点 482.25km 482.185km
远地点 483.868km 483.921km
周期 94.267分钟 94.267分钟
每日圈数 15.27577 15.27579
Detailed Information
固有亮度:
5
最大亮度:
2.4
卫星平台:
Starlink v1.5
覆盖范围:
全球
运营商:
太空探索技术公司
运营商所在国:
美国
制造商(研发单位):
太空探索技术公司
制造商所在国:
美国
使用方式:
暂无
Satellite Introduction
星链(Starlink)计划是由太空探索技术公司(SpaceX)提出的一个巨型低轨卫星互联网星座项目,计划在2019年至2024年间在太空搭建由约1.2万颗卫星组成的“星链”网络,其中1584颗将部署在地球上空550千米处的近地轨道,并从2020年开始工作。该卫星仍在工作。
2D Orbit Map
3D Orbit Map
Orbit Altitude Analysis Chart
Orbit Inclination Analysis Chart
Orbit Comprehensive Analysis Chart
View Comprehensive Chart